Date String (YYYY-MM-DD hh:mm:ss) UTC,Instrument flags,Ambient pressure (hPa),Sample flow (lpm),Bypass flow (lpm),Sample temperature (°C),Ambient temperature (°C),ASC tube jacket temperature (°C),LED temperature (°C),Box temperature (°C),Sample RH (%),Span deviation,Mass concentration (μg/m³),Mass concentration (μg/m³),Mass concentration (μg/m³)
DateTimeUTC,F1_M11,P_M11,Q1_M11,Q2_M11,T1_M11,T2_M11,T3_M11,T4_M11,T5_M11,U1_M11,ZSPAN_M11,X2_M11,X0_M11,X1_M11
2022-12-12 08:00:00,,0814.4,5.01,0.00,25.0,23.5,00.0,33.9,26.7,06.8,0000.0,0006.34,0013.82,0005.56
2022-12-12 08:01:00,,0814.4,4.99,0.00,25.0,23.5,00.0,33.9,26.7,06.9,0000.0,0006.25,0013.20,0005.48
2022-12-12 08:02:00,,0814.4,4.99,0.00,25.0,23.5,00.0,33.9,26.8,06.9,0000.0,0006.22,0012.95,0005.45
2022-12-12 08:03:00,,0814.3,5.00,0.00,25.0,23.5,00.0,33.9,26.8,06.9,0000.0,0006.20,0012.52,0005.43
2022-12-12 08:04:00,,0814.4,5.01,0.00,25.0,23.5,00.0,33.9,26.8,07.0,0000.0,0006.23,0012.61,0005.45
2022-12-12 08:05:00,,0814.3,5.00,0.00,25.0,23.5,00.0,33.9,26.8,07.0,0000.0,0006.29,0013.43,0005.49
2022-12-12 08:06:00,,0814.4,5.00,0.00,25.0,23.6,00.0,33.9,26.9,07.0,0000.0,0006.35,0014.27,0005.52
2022-12-12 08:07:00,,0814.4,4.99,0.00,25.0,23.6,00.0,33.9,26.9,06.9,0000.0,0006.32,0014.02,0005.51
2022-12-12 08:08:00,,0814.4,4.99,0.00,25.0,23.6,00.0,33.9,26.9,06.9,0000.0,0006.26,0013.78,0005.47
2022-12-12 08:09:00,,0814.4,5.00,0.00,25.0,23.6,00.0,33.9,26.8,06.9,0000.0,0006.18,0012.91,0005.42
2022-12-12 08:10:00,,0814.5,5.01,0.00,25.0,23.5,00.0,33.9,26.8,06.8,0000.0,0006.10,0012.78,0005.36
2022-12-12 08:11:00,,0814.5,4.99,0.00,25.0,23.5,00.0,33.9,26.8,06.8,0000.0,0006.01,0012.40,0005.31
2022-12-12 08:12:00,,0814.5,4.99,0.00,25.0,23.5,00.0,33.9,26.7,06.6,0000.0,0005.89,0012.31,0005.18
2022-12-12 08:13:00,,0814.4,5.00,0.00,25.0,23.5,00.0,33.9,26.7,06.7,0000.0,0005.70,0012.07,0005.03
2022-12-12 08:14:00,,0814.3,5.01,0.00,25.0,23.5,00.0,33.9,26.7,06.7,0000.0,0005.55,0011.83,0004.90
2022-12-12 08:15:00,,0814.3,5.00,0.00,25.0,23.5,00.0,33.9,26.8,06.7,0000.0,0005.42,0011.62,0004.80
2022-12-12 08:16:00,,0814.3,4.99,0.00,25.0,23.5,00.0,33.9,26.8,06.7,0000.0,0005.28,0010.94,0004.69
2022-12-12 08:17:00,,0814.4,4.99,0.00,25.0,23.5,00.0,33.9,26.8,06.8,0000.0,0005.18,0010.78,0004.61
2022-12-12 08:18:00,,0814.3,5.01,0.00,25.0,23.5,00.0,33.9,26.8,06.8,0000.0,0005.08,0010.81,0004.56
2022-12-12 08:19:00,,0814.3,5.02,0.00,25.0,23.5,00.0,33.9,26.8,06.9,0000.0,0005.05,0011.68,0004.53
2022-12-12 08:20:00,,0814.3,4.99,0.00,25.0,23.5,00.0,33.9,26.8,06.9,0000.0,0005.06,0011.71,0004.53
2022-12-12 08:21:00,,0814.4,4.99,0.00,25.0,23.5,00.0,33.9,26.8,06.9,0000.0,0005.08,0011.59,0004.57
2022-12-12 08:22:00,,0814.4,5.00,0.00,25.0,23.5,00.0,33.9,26.9,06.9,0000.0,0005.15,0011.74,0004.65
2022-12-12 08:23:00,,0814.3,5.01,0.00,25.0,23.5,00.0,33.9,26.8,06.9,0000.0,0005.29,0012.48,0004.77
2022-12-12 08:24:00,,0814.3,5.01,0.00,25.0,23.5,00.0,33.9,26.7,06.9,0000.0,0005.43,0012.84,0004.92
2022-12-12 08:25:00,,0814.3,5.01,0.00,25.0,23.5,00.0,33.9,26.7,06.9,0000.0,0005.53,0012.98,0005.01
2022-12-12 08:26:00,,0814.2,4.99,0.00,25.0,23.5,00.0,33.9,26.8,06.9,0000.0,0005.64,0013.17,0005.06
2022-12-12 08:27:00,,0814.6,4.99,0.00,25.0,23.5,00.0,33.9,26.8,06.9,0000.0,0005.75,0013.19,0005.12
2022-12-12 08:28:00,,0814.6,5.00,0.00,25.0,23.5,00.0,33.9,26.8,07.0,0000.0,0005.83,0012.35,0005.17
2022-12-12 08:29:00,,0814.3,5.00,0.00,25.0,23.5,00.0,33.9,26.8,07.1,0000.0,0005.93,0012.46,0005.24
2022-12-12 08:30:00,,0814.3,5.01,0.00,25.0,23.5,00.0,33.9,26.8,07.1,0000.0,0006.04,0011.93,0005.35
2022-12-12 08:31:00,,0814.4,5.00,0.00,25.0,23.5,00.0,33.9,26.8,07.1,0000.0,0006.14,0012.42,0005.44
2022-12-12 08:32:00,,0814.4,5.00,0.00,25.0,23.5,00.0,33.9,26.8,07.1,0000.0,0006.24,0013.04,0005.52
2022-12-12 08:33:00,,0814.4,5.00,0.00,25.0,23.5,00.0,33.9,26.7,07.0,0000.0,0006.21,0012.82,0005.48
2022-12-12 08:34:00,,0814.4,4.99,0.00,25.0,23.5,00.0,33.9,26.7,06.9,0000.0,0006.08,0012.15,0005.38
2022-12-12 08:35:00,,0814.3,5.00,0.00,25.0,23.4,00.0,33.9,26.6,07.0,0000.0,0006.00,0011.90,0005.33
2022-12-12 08:36:00,,0814.2,5.00,0.00,24.9,23.4,00.0,33.9,26.7,07.1,0000.0,0006.01,0012.04,0005.34
2022-12-12 08:37:00,,0814.6,5.00,0.00,24.9,23.4,00.0,33.9,26.7,07.2,0000.0,0006.07,0012.62,0005.43
2022-12-12 08:38:00,,0814.1,5.00,0.00,24.9,23.4,00.0,33.9,26.7,07.1,0000.0,0006.10,0013.60,0005.51
2022-12-12 08:39:00,,0814.0,5.00,0.00,24.9,23.4,00.0,33.8,26.7,07.1,0000.0,0006.07,0013.77,0005.52
2022-12-12 08:40:00,,0814.1,5.01,0.00,24.9,23.4,00.0,33.8,26.7,07.1,0000.0,0006.04,0013.46,0005.50
2022-12-12 08:41:00,,0814.1,5.00,0.00,24.9,23.4,00.0,33.8,26.7,07.1,0000.0,0005.99,0013.04,0005.44
2022-12-12 08:42:00,,0814.1,5.00,0.00,24.9,23.4,00.0,33.8,26.6,07.1,0000.0,0005.95,0012.89,0005.39
2022-12-12 08:43:00,,0814.1,5.00,0.00,24.9,23.3,00.0,33.8,26.6,07.1,0000.0,0005.87,0012.19,0005.33
2022-12-12 08:44:00,,0814.1,5.00,0.00,24.9,23.3,00.0,33.8,26.6,07.1,0000.0,0005.92,0012.52,0005.36
2022-12-12 08:45:00,,0814.0,5.00,0.00,24.9,23.3,00.0,33.8,26.6,07.1,0000.0,0006.08,0012.71,0005.49
2022-12-12 08:46:00,,0814.0,5.00,0.00,24.9,23.3,00.0,33.8,26.6,07.1,0000.0,0006.25,0013.17,0005.59
2022-12-12 08:47:00,,0814.0,5.01,0.00,24.8,23.3,00.0,33.8,26.6,07.1,0000.0,0006.32,0013.62,0005.63
2022-12-12 08:48:00,,0814.0,5.01,0.00,24.8,23.2,00.0,33.8,26.5,07.0,0000.0,0006.27,0013.93,0005.59
2022-12-12 08:49:00,,0814.0,5.00,0.00,24.8,23.2,00.0,33.8,26.5,07.1,0000.0,0006.23,0013.18,0005.54
2022-12-12 08:50:00,,0814.0,5.00,0.00,24.8,23.2,00.0,33.8,26.5,07.1,0000.0,0006.24,0012.88,0005.55
2022-12-12 08:51:00,,0814.0,5.00,0.00,24.8,23.2,00.0,33.8,26.5,07.1,0000.0,0006.23,0013.15,0005.53
2022-12-12 08:52:00,,0814.0,4.99,0.00,24.8,23.2,00.0,33.8,26.5,07.1,0000.0,0006.21,0013.18,0005.53
2022-12-12 08:53:00,,0814.1,5.00,0.00,24.8,23.2,00.0,33.8,26.5,07.0,0000.0,0006.16,0012.93,0005.49
2022-12-12 08:54:00,,0814.0,5.01,0.00,24.8,23.2,00.0,33.7,26.5,06.9,0000.0,0006.11,0012.86,0005.44
2022-12-12 08:55:00,,0814.0,5.00,0.00,24.7,23.1,00.0,33.7,26.5,06.9,0000.0,0005.98,0012.48,0005.35
2022-12-12 08:56:00,,0814.0,4.99,0.00,24.7,23.1,00.0,33.7,26.4,06.9,0000.0,0005.88,0012.74,0005.28
2022-12-12 08:57:00,,0814.0,4.99,0.00,24.7,23.1,00.0,33.7,26.5,07.0,0000.0,0005.84,0012.92,0005.23
2022-12-12 08:58:00,,0814.1,5.00,0.00,24.7,23.1,00.0,33.7,26.5,06.9,0000.0,0005.75,0012.15,0005.18
2022-12-12 08:59:00,,0814.2,5.01,0.00,24.7,23.1,00.0,33.7,26.4,07.0,0000.0,0005.73,0011.76,0005.14
